This demonstration page uses our WeatherBlox Daily Observations layout. Learn more.

Left ArrowRight Arrow

39.92423, -83.80882

Hourly Observations for March 29, 2022

Temp ( °F °C ) Dew Point ( °F °C ) Humidity (%) Winds ( mph kmh ) Pressure ( in mb ) Visibility ( mi km ) Precip ( " mm )
12:56 am 00:56 Clear 22 -5.6 16 -8.9 78 78 E 6 9 30.32 1027 10 16 0.00 0.00
1:56 am 01:56 Clear 22 -5.6 15 -9.4 75 75 E 5 7 30.32 1027 10 16 0.00 0.00
2:56 am 02:56 Clear 24 -4.4 15 -9.4 68 68 E 3 6 30.32 1027 10 16 0.00 0.00
3:56 am 03:56 Clear 21 -6.1 15 -9.4 78 78 E 7 11 30.30 1026 10 16 0.00 0.00
4:56 am 04:56 Clear 22 -5.6 17 -8.3 82 82 E 6 9 30.30 1026 10 16 0.00 0.00
5:56 am 05:56 Clear 23 -5 15 -9.4 72 72 SSE 7 11 30.32 1027 10 16 0.00 0.00
6:56 am 06:56 Clear 22 -5.6 16 -8.9 78 78 ESE 6 9 30.33 1027 10 16 0.00 0.00
7:56 am 07:56 Sunny 23 -5 18 -7.8 81 81 ESE 6 9 30.34 1027 10 16 0.00 0.00
8:56 am 08:56 Mostly Sunny 26 -3.3 18 -7.8 71 71 SE 8 13 30.35 1028 10 16 0.00 0.00
9:56 am 09:56 Sunny 30 -1.1 19 -7.2 64 64 SE 13 20 30.35 1028 10 16 0.00 0.00
10:56 am 10:56 Sunny 32 0 16 -8.9 52 52 SE 12 19 30.35 1028 10 16 0.00 0.00
11:56 am 11:56 Partly Cloudy 35 1.7 15 -9.4 44 44 ESE 15 24 30.33 1027 10 16 0.00 0.00
12:56 pm 12:56 Cloudy 36 2.2 14 -10 40 40 ESE 14 22 30.30 1026 10 16 0.00 0.00
1:56 pm 13:56 Cloudy 38 3.3 14 -10 37 37 SE 14 22 30.28 1026 10 16 0.00 0.00
2:56 pm 14:56 Cloudy 39 3.9 15 -9.4 38 38 SE 12 19 30.25 1025 10 16 0.00 0.00
3:56 pm 15:56 Cloudy 40 4.4 14 -10 35 35 SE 12 19 30.23 1024 10 16 0.00 0.00
4:56 pm 16:56 Partly Cloudy 42 5.6 14 -10 32 32 ESE 12 19 30.19 1022 10 16 0.00 0.00
5:56 pm 17:56 Mostly Cloudy 41 5 15 -9.4 35 35 ESE 18 30 30.16 1021 10 16 0.00 0.00
6:56 pm 18:56 Cloudy 40 4.4 16 -8.9 38 38 ESE 14 22 30.14 1021 10 16 0.00 0.00
7:56 pm 19:56 Cloudy with Light Rain 39 3.9 22 -5.6 50 50 ESE 15 24 30.11 1020 10 16 0.00 0.00
8:56 pm 20:56 Cloudy 39 3.9 18 -7.8 43 43 ESE 16 26 30.11 1020 10 16 0.00 0.00
9:56 pm 21:56 Cloudy with Light Rain 38 3.3 23 -5 55 55 ESE 14 22 30.11 1020 10 16 0.00 0.00
10:56 pm 22:56 Cloudy 38 3.3 23 -5 55 55 ESE 12 19 30.09 1019 10 16 0.00 0.00
11:56 pm 23:56 Cloudy 39 3.9 20 -6.7 46 46 ESE 13 20 30.06 1018 10 16 0.00 0.00

Powered by AerisWeather